| time (UTC) | temp F | wind direction | speed MPH | gust MPH | rain 1hr in | rain 24hr in | rain mn in | humidity % | barometer mb |
| 20260903072025 | 60 | 78 | 0.0 | 3.0 | 0.00 | 0.00 | 0.00 | 82 | 1016.5 |
| 20260903071525 | 60 | 79 | 0.0 | 2.0 | 0.00 | 0.00 | 0.00 | 82 | 1016.6 |
| 20260903071024 | 60 | 79 | 0.0 | 3.0 | 0.00 | 0.00 | 0.00 | 82 | 1016.6 |
| 20260903070527 | 60 | 79 | 0.0 | 0.0 | 0.00 | 0.00 | 0.00 | 82 | 1016.5 |
| 20260903070022 | 60 | 79 | 0.0 | 0.0 | 0.00 | 0.00 | 0.00 | 82 | 1016.5 |
| 20260903065522 | 60 | 79 | 0.0 | 0.0 | 0.00 | 0.00 | 0.00 | 82 | 1016.5 |
| 20260903065021 | 60 | 79 | 0.0 | 0.0 | 0.00 | 0.00 | 0.00 | 82 | 1016.5 |
| 20260903064525 | 60 | 79 | 0.0 | 0.0 | 0.00 | 0.00 | 0.00 | 82 | 1016.5 |
| 20260903064021 | 60 | 79 | 0.0 | 0.0 | 0.00 | 0.00 | 0.00 | 82 | 1016.6 |
| 20260903063521 | 61 | 79 | 0.0 | 2.0 | 0.00 | 0.00 | 0.00 | 82 | 1016.5 |
| 20260903063020 | 61 | 79 | 0.0 | 2.0 | 0.00 | 0.00 | 0.00 | 82 | 1016.4 |
| 20260903062522 | 61 | 79 | 0.0 | 0.0 | 0.00 | 0.00 | 0.00 | 81 | 1016.5 |
| 20260903062019 | 61 | 79 | 0.0 | 0.0 | 0.00 | 0.00 | 0.00 | 82 | 1016.4 |
| 20260903061522 | 61 | 79 | 0.0 | 2.0 | 0.00 | 0.00 | 0.00 | 82 | 1016.4 |
| 20260903061024 | 61 | 79 | 0.0 | 3.0 | 0.00 | 0.00 | 0.00 | 82 | 1016.5 |
| 20260903060520 | 61 | 4 | 0.0 | 3.0 | 0.00 | 0.00 | 0.00 | 82 | 1016.4 |
| 20260903060020 | 61 | 351 | 0.0 | 6.0 | 0.00 | 0.00 | 0.00 | 82 | 1016.4 |
| 20260903055520 | 61 | 341 | 1.0 | 7.0 | 0.00 | 0.00 | 0.00 | 82 | 1016.4 |
| 20260903055019 | 62 | 343 | 0.0 | 7.0 | 0.00 | 0.00 | 0.00 | 82 | 1016.4 |
| 20260903054519 | 62 | 51 | 0.0 | 5.0 | 0.00 | 0.00 | 0.00 | 82 | 1016.5 |
| 20260903054022 | 62 | 51 | 0.0 | 5.0 | 0.00 | 0.00 | 0.00 | 82 | 1016.5 |
| 20260903053518 | 62 | 12 | 0.0 | 6.0 | 0.00 | 0.00 | 0.00 | 82 | 1016.5 |
| 20260903053018 | 62 | 7 | 1.0 | 5.0 | 0.00 | 0.00 | 0.00 | 82 | 1016.5 |
| 20260903052518 | 62 | 55 | 0.0 | 5.0 | 0.00 | 0.00 | 0.00 | 82 | 1016.6 |
| 20260903052019 | 62 | 45 | 0.0 | 7.0 | 0.00 | 0.00 | 0.00 | 82 | 1016.6 |
| 20260903051518 | 62 | 20 | 1.0 | 7.0 | 0.00 | 0.00 | 0.00 | 82 | 1016.6 |
| 20260903051017 | 62 | 24 | 1.0 | 8.0 | 0.00 | 0.00 | 0.00 | 82 | 1016.6 |
| 20260903050517 | 62 | 4 | 2.0 | 8.0 | 0.00 | 0.00 | 0.00 | 82 | 1016.5 |
| 20260903050010 | 62 | 7 | 0.0 | 6.0 | 0.00 | 0.00 | 0.00 | 82 | 1016.6 |
| 20260903045511 | 63 | 6 | 1.0 | 6.0 | 0.00 | 0.00 | 0.00 | 83 | 1016.5 |
| 20260903045011 | 63 | 57 | 1.0 | 8.0 | 0.00 | 0.00 | 0.00 | 83 | 1016.6 |
| 20260903044510 | 63 | 356 | 1.0 | 8.0 | 0.00 | 0.00 | 0.00 | 83 | 1016.5 |
| 20260903044010 | 63 | 15 | 0.0 | 11.0 | 0.00 | 0.00 | 0.00 | 83 | 1016.6 |
| 20260903043509 | 63 | 350 | 0.0 | 11.0 | 0.00 | 0.00 | 0.00 | 83 | 1016.6 |
| 20260903043010 | 63 | 360 | 1.0 | 6.0 | 0.00 | 0.00 | 0.00 | 83 | 1016.6 |
| 20260903042510 | 63 | 14 | 0.0 | 6.0 | 0.00 | 0.00 | 0.00 | 83 | 1016.5 |
| 20260903042009 | 63 | 353 | 1.0 | 6.0 | 0.00 | 0.00 | 0.00 | 83 | 1016.5 |
| 20260903041508 | 63 | 360 | 1.0 | 8.0 | 0.00 | 0.00 | 0.00 | 83 | 1016.6 |
| 20260903041009 | 64 | 24 | 0.0 | 9.0 | 0.00 | 0.00 | 0.00 | 83 | 1016.5 |
| 20260903040509 | 64 | 339 | 1.0 | 10.0 | 0.00 | 0.00 | 0.00 | 83 | 1016.4 |
| 20260903040049 | 64 | 19 | 0.0 | 8.0 | 0.00 | 0.00 | 0.00 | 83 | 1016.4 |
| 20260903035548 | 64 | 341 | 0.0 | 7.0 | 0.00 | 0.00 | 0.00 | 83 | 1016.3 |
| 20260903035048 | 64 | 7 | 0.0 | 8.0 | 0.00 | 0.00 | 0.00 | 83 | 1016.4 |
| 20260903034548 | 64 | 99 | 0.0 | 8.0 | 0.00 | 0.00 | 0.00 | 82 | 1016.3 |
| 20260903034047 | 64 | 57 | 2.0 | 8.0 | 0.00 | 0.00 | 0.00 | 83 | 1016.2 |
| 20260903033547 | 65 | 356 | 1.0 | 8.0 | 0.00 | 0.00 | 0.00 | 83 | 1016.2 |
| 20260903033047 | 65 | 57 | 1.0 | 10.0 | 0.00 | 0.00 | 0.00 | 82 | 1016.1 |
| 20260903032547 | 65 | 335 | 2.0 | 10.0 | 0.00 | 0.00 | 0.00 | 82 | 1016.1 |
| 20260903032048 | 65 | 145 | 1.0 | 8.0 | 0.00 | 0.00 | 0.00 | 82 | 1016.0 |
| 20260903031550 | 65 | 37 | 0.0 | 8.0 | 0.00 | 0.00 | 0.00 | 82 | 1015.9 |
| 20260903031046 | 65 | 10 | 1.0 | 8.0 | 0.00 | 0.00 | 0.00 | 82 | 1016.0 |
| 20260903030549 | 66 | 358 | 2.0 | 6.0 | 0.00 | 0.00 | 0.00 | 82 | 1015.9 |
| 20260903030040 | 66 | 123 | 0.0 | 11.0 | 0.00 | 0.00 | 0.00 | 82 | 1015.9 |
| 20260903025539 | 66 | 46 | 2.0 | 11.0 | 0.00 | 0.00 | 0.00 | 82 | 1015.8 |
| 20260903025039 | 66 | 22 | 1.0 | 11.0 | 0.00 | 0.00 | 0.00 | 82 | 1015.8 |
| 20260903024539 | 67 | 318 | 1.0 | 11.0 | 0.00 | 0.00 | 0.00 | 82 | 1015.8 |
| 20260903024040 | 67 | 18 | 2.0 | 11.0 | 0.00 | 0.00 | 0.00 | 82 | 1015.8 |
| 20260903023539 | 67 | 356 | 3.0 | 10.0 | 0.00 | 0.00 | 0.00 | 82 | 1015.8 |
| 20260903023039 | 67 | 325 | 1.0 | 9.0 | 0.00 | 0.00 | 0.00 | 82 | 1015.8 |
| 20260903022539 | 68 | 15 | 2.0 | 9.0 | 0.00 | 0.00 | 0.00 | 83 | 1015.7 |
| 20260903022041 | 68 | 354 | 2.0 | 10.0 | 0.00 | 0.00 | 0.00 | 83 | 1015.8 |
| 20260903021538 | 68 | 23 | 2.0 | 10.0 | 0.00 | 0.00 | 0.00 | 83 | 1015.7 |
| 20260903021038 | 69 | 333 | 2.0 | 9.0 | 0.00 | 0.00 | 0.00 | 83 | 1015.8 |
| 20260903020537 | 69 | 35 | 2.0 | 7.0 | 0.00 | 0.00 | 0.00 | 84 | 1015.7 |
| 20260903020034 | 69 | 360 | 0.0 | 10.0 | 0.00 | 0.00 | 0.00 | 84 | 1015.8 |
| 20260903015621 | 69 | 349 | 3.0 | 10.0 | 0.00 | 0.00 | 0.00 | 84 | 1015.7 |
| 20260903015021 | 70 | 354 | 3.0 | 11.0 | 0.00 | 0.00 | 0.00 | 84 | 1015.8 |
| 20260903014524 | 70 | 306 | 4.0 | 11.0 | 0.00 | 0.00 | 0.00 | 84 | 1015.8 |
| 20260903014021 | 70 | 37 | 2.0 | 7.0 | 0.00 | 0.00 | 0.00 | 84 | 1015.8 |
| 20260903013521 | 70 | 42 | 0.0 | 7.0 | 0.00 | 0.00 | 0.00 | 84 | 1016.0 |
| 20260903013020 | 71 | 314 | 1.0 | 10.0 | 0.00 | 0.00 | 0.00 | 84 | 1015.9 |
| 20260903012520 | 71 | 46 | 2.0 | 10.0 | 0.00 | 0.00 | 0.00 | 84 | 1015.9 |
| 20260903012020 | 71 | 4 | 3.0 | 12.0 | 0.00 | 0.00 | 0.00 | 84 | 1015.9 |
| 20260903011520 | 72 | 314 | 3.0 | 12.0 | 0.00 | 0.00 | 0.00 | 84 | 1015.8 |
| 20260903011019 | 72 | 29 | 5.0 | 14.0 | 0.00 | 0.00 | 0.00 | 83 | 1016.0 |
| 20260903010513 | 73 | 291 | 4.0 | 14.0 | 0.00 | 0.00 | 0.00 | 83 | 1016.0 |
| 20260903010013 | 73 | 328 | 4.0 | 14.0 | 0.00 | 0.00 | 0.00 | 83 | 1015.9 |
| 20260903005512 | 73 | 20 | 2.0 | 15.0 | 0.00 | 0.00 | 0.00 | 83 | 1015.9 |
| 20260903005012 | 74 | 318 | 3.0 | 15.0 | 0.00 | 0.00 | 0.00 | 82 | 1015.9 |
| 20260903004512 | 74 | 99 | 2.0 | 12.0 | 0.00 | 0.00 | 0.00 | 82 | 1015.8 |
| 20260903004013 | 74 | 54 | 2.0 | 12.0 | 0.00 | 0.00 | 0.00 | 82 | 1015.9 |
| 20260903003513 | 74 | 323 | 3.0 | 16.0 | 0.00 | 0.00 | 0.00 | 82 | 1015.8 |
| 20260903003012 | 75 | 42 | 3.0 | 16.0 | 0.00 | 0.00 | 0.00 | 81 | 1015.8 |
| 20260903002514 | 75 | 125 | 1.0 | 17.0 | 0.00 | 0.00 | 0.00 | 81 | 1015.8 |
| 20260903002012 | 75 | 321 | 3.0 | 17.0 | 0.00 | 0.00 | 0.00 | 80 | 1015.7 |
| 20260903001511 | 76 | 342 | 4.0 | 14.0 | 0.00 | 0.00 | 0.00 | 79 | 1015.8 |
| 20260903001011 | 76 | 1 | 6.0 | 14.0 | 0.00 | 0.00 | 0.00 | 79 | 1015.8 |
| 20260903000510 | 76 | 326 | 3.0 | 16.0 | 0.00 | 0.00 | 0.00 | 78 | 1015.8 |
| 20260903000010 | 77 | 219 | 7.0 | 16.0 | 0.00 | 0.00 | 0.00 | 78 | 1015.8 |
| 20260902235511 | 77 | 296 | 4.0 | 17.0 | 0.00 | 0.00 | 0.00 | 78 | 1015.8 |
| 20260902235010 | 77 | 348 | 3.0 | 17.0 | 0.00 | 0.00 | 0.00 | 77 | 1015.8 |
| 20260902234507 | 78 | 31 | 4.0 | 13.0 | 0.00 | 0.00 | 0.00 | 77 | 1016.0 |
| 20260902234009 | 78 | 360 | 5.0 | 11.0 | 0.00 | 0.00 | 0.00 | 76 | 1016.0 |
| 20260902233507 | 78 | 57 | 3.0 | 12.0 | 0.00 | 0.00 | 0.00 | 75 | 1016.0 |
| 20260902233011 | 78 | 341 | 3.0 | 16.0 | 0.00 | 0.00 | 0.00 | 76 | 1016.1 |
| 20260902232505 | 78 | 25 | 3.0 | 16.0 | 0.00 | 0.00 | 0.00 | 75 | 1016.1 |
| 20260902232005 | 79 | 92 | 3.0 | 14.0 | 0.00 | 0.00 | 0.00 | 74 | 1016.1 |
| 20260902231505 | 79 | 356 | 1.0 | 13.0 | 0.00 | 0.00 | 0.00 | 73 | 1016.2 |
| 20260902231006 | 79 | 60 | 1.0 | 11.0 | 0.00 | 0.00 | 0.00 | 72 | 1016.2 |
| 20260902230503 | 79 | 15 | 4.0 | 15.0 | 0.00 | 0.00 | 0.00 | 72 | 1016.2 |
| 20260902230158 | 79 | 74 | 2.0 | 15.0 | 0.00 | 0.00 | 0.00 | 73 | 1016.2 |
| 20260902225555 | 79 | 75 | 2.0 | 13.0 | 0.00 | 0.00 | 0.00 | 72 | 1016.3 |
| 20260902225054 | 79 | 177 | 0.0 | 11.0 | 0.00 | 0.00 | 0.00 | 71 | 1016.3 |
| 20260902224556 | 79 | 20 | 3.0 | 11.0 | 0.00 | 0.00 | 0.00 | 72 | 1016.3 |
| 20260902224053 | 78 | 5 | 5.0 | 11.0 | 0.00 | 0.00 | 0.00 | 73 | 1016.3 |
| 20260902223552 | 79 | 235 | 3.0 | 14.0 | 0.00 | 0.00 | 0.00 | 73 | 1016.4 |
| 20260902223113 | 78 | 289 | 2.0 | 11.0 | 0.00 | 0.00 | 0.00 | 74 | 1016.4 |
| 20260902222551 | 78 | 7 | 3.0 | 12.0 | 0.00 | 0.00 | 0.00 | 75 | 1016.4 |
| 20260902222053 | 78 | 92 | 4.0 | 12.0 | 0.00 | 0.00 | 0.00 | 76 | 1016.4 |
| 20260902221550 | 78 | 175 | 2.0 | 12.0 | 0.00 | 0.00 | 0.00 | 77 | 1016.5 |
| 20260902221050 | 78 | 2 | 5.0 | 12.0 | 0.00 | 0.00 | 0.00 | 77 | 1016.5 |
| 20260902220548 | 78 | 345 | 4.0 | 13.0 | 0.00 | 0.00 | 0.00 | 76 | 1016.4 |
| 20260902220029 | 78 | 19 | 4.0 | 13.0 | 0.00 | 0.00 | 0.00 | 79 | 1016.5 |
| 20260902215527 | 78 | 305 | 6.0 | 13.0 | 0.00 | 0.00 | 0.00 | 80 | 1016.6 |
| 20260902215027 | 77 | 321 | 1.0 | 10.0 | 0.00 | 0.00 | 0.00 | 80 | 1016.6 |
| 20260902214527 | 77 | 294 | 6.0 | 13.0 | 0.00 | 0.00 | 0.00 | 80 | 1016.6 |
| 20260902214027 | 77 | 288 | 7.0 | 14.0 | 0.00 | 0.00 | 0.00 | 80 | 1016.6 |
| 20260902213525 | 77 | 291 | 5.0 | 15.0 | 0.00 | 0.00 | 0.00 | 80 | 1016.5 |
| 20260902213024 | 77 | 298 | 7.0 | 15.0 | 0.00 | 0.00 | 0.00 | 80 | 1016.5 |
| 20260902212523 | 77 | 335 | 7.0 | 14.0 | 0.00 | 0.00 | 0.00 | 80 | 1016.6 |
| 20260902212023 | 77 | 309 | 7.0 | 14.0 | 0.00 | 0.00 | 0.00 | 80 | 1016.6 |
| 20260902211522 | 77 | 300 | 7.0 | 14.0 | 0.00 | 0.00 | 0.00 | 80 | 1016.5 |
| 20260902211021 | 77 | 301 | 8.0 | 14.0 | 0.00 | 0.00 | 0.00 | 80 | 1016.7 |
| 20260902210522 | 77 | 333 | 5.0 | 14.0 | 0.00 | 0.00 | 0.00 | 80 | 1016.5 |
| 20260902210021 | 77 | 1 | 7.0 | 14.0 | 0.00 | 0.00 | 0.00 | 80 | 1016.6 |
| 20260902205519 | 77 | 301 | 5.0 | 14.0 | 0.00 | 0.00 | 0.00 | 80 | 1016.5 |
| 20260902205019 | 77 | 316 | 6.0 | 14.0 | 0.00 | 0.00 | 0.00 | 80 | 1016.6 |
| 20260902204534 | 76 | 293 | 3.0 | 12.0 | 0.00 | 0.00 | 0.00 | 80 | 1016.6 |
| 20260902204016 | 76 | 305 | 6.0 | 13.0 | 0.00 | 0.00 | 0.00 | 80 | 1016.7 |
| 20260902203517 | 76 | 300 | 5.0 | 13.0 | 0.00 | 0.00 | 0.00 | 80 | 1016.7 |
| 20260902203013 | 75 | 312 | 5.0 | 12.0 | 0.00 | 0.00 | 0.00 | 81 | 1016.7 |
| 20260902202512 | 75 | 289 | 6.0 | 16.0 | 0.00 | 0.00 | 0.00 | 81 | 1016.7 |
| 20260902202013 | 75 | 299 | 3.0 | 16.0 | 0.00 | 0.00 | 0.00 | 81 | 1016.7 |
| 20260902201513 | 75 | 291 | 7.0 | 16.0 | 0.00 | 0.00 | 0.00 | 81 | 1016.7 |
| 20260902201009 | 75 | 313 | 7.0 | 15.0 | 0.00 | 0.00 | 0.00 | 81 | 1016.8 |
| 20260902200507 | 75 | 283 | 6.0 | 16.0 | 0.00 | 0.00 | 0.00 | 81 | 1016.9 |
| 20260902200006 | 74 | 307 | 8.0 | 16.0 | 0.00 | 0.00 | 0.00 | 81 | 1016.9 |
| 20260902195505 | 74 | 296 | 8.0 | 14.0 | 0.00 | 0.00 | 0.00 | 80 | 1017.0 |
| 20260902195005 | 74 | 306 | 5.0 | 10.0 | 0.00 | 0.00 | 0.00 | 81 | 1017.1 |
| 20260902194502 | 73 | 285 | 3.0 | 10.0 | 0.00 | 0.00 | 0.00 | 81 | 1017.1 |
| 20260902194002 | 73 | 275 | 5.0 | 10.0 | 0.00 | 0.00 | 0.00 | 81 | 1017.1 |
| 20260902193502 | 73 | 267 | 6.0 | 11.0 | 0.00 | 0.00 | 0.00 | 81 | 1017.1 |
| 20260902193002 | 73 | 273 | 4.0 | 11.0 | 0.00 | 0.00 | 0.00 | 81 | 1017.2 |
| 20260902192601 | 73 | 283 | 3.0 | 11.0 | 0.00 | 0.00 | 0.00 | 81 | 1017.3 |
| 20260902192100 | 73 | 299 | 6.0 | 11.0 | 0.00 | 0.00 | 0.00 | 81 | 1017.3 |
| 20260902191559 | 72 | 308 | 7.0 | 11.0 | 0.00 | 0.00 | 0.00 | 81 | 1017.4 |
| 20260902191058 | 72 | 310 | 7.0 | 11.0 | 0.00 | 0.00 | 0.00 | 81 | 1017.4 |
| 20260902190555 | 72 | 299 | 5.0 | 13.0 | 0.00 | 0.00 | 0.00 | 81 | 1017.4 |
| 20260902190042 | 72 | 312 | 6.0 | 13.0 | 0.00 | 0.00 | 0.00 | 81 | 1017.5 |
| 20260902185543 | 72 | 306 | 6.0 | 9.0 | 0.00 | 0.00 | 0.00 | 81 | 1017.6 |
| 20260902185042 | 72 | 282 | 4.0 | 11.0 | 0.00 | 0.00 | 0.00 | 81 | 1017.7 |
| 20260902184539 | 72 | 307 | 6.0 | 12.0 | 0.00 | 0.00 | 0.00 | 81 | 1017.7 |
| 20260902184038 | 72 | 297 | 5.0 | 12.0 | 0.00 | 0.00 | 0.00 | 81 | 1017.7 |
| 20260902183531 | 72 | 291 | 5.0 | 11.0 | 0.00 | 0.00 | 0.00 | 83 | 1017.7 |
| 20260902183050 | 72 | 294 | 6.0 | 10.0 | 0.00 | 0.00 | 0.00 | 83 | 1017.7 |
| 20260902182530 | 71 | 327 | 3.0 | 10.0 | 0.00 | 0.00 | 0.00 | 83 | 1017.8 |
| 20260902182028 | 71 | 323 | 4.0 | 10.0 | 0.00 | 0.00 | 0.00 | 83 | 1017.9 |
| 20260902181527 | 70 | 298 | 5.0 | 10.0 | 0.00 | 0.00 | 0.00 | 84 | 1017.8 |
| 20260902181024 | 70 | 319 | 5.0 | 10.0 | 0.00 | 0.00 | 0.00 | 84 | 1017.8 |
| 20260902180523 | 70 | 289 | 3.0 | 9.0 | 0.00 | 0.00 | 0.00 | 84 | 1017.7 |
| 20260902180022 | 69 | 284 | 4.0 | 9.0 | 0.00 | 0.00 | 0.00 | 84 | 1017.7 |
| 20260902175520 | 69 | 294 | 3.0 | 9.0 | 0.00 | 0.00 | 0.00 | 83 | 1017.6 |
| 20260902175019 | 69 | 271 | 3.0 | 9.0 | 0.00 | 0.00 | 0.00 | 83 | 1017.7 |
| 20260902174523 | 69 | 296 | 3.0 | 9.0 | 0.00 | 0.00 | 0.00 | 83 | 1017.7 |
| 20260902174016 | 69 | 285 | 2.0 | 8.0 | 0.00 | 0.00 | 0.00 | 83 | 1017.8 |
| 20260902173515 | 69 | 296 | 4.0 | 10.0 | 0.00 | 0.00 | 0.00 | 83 | 1017.8 |
| 20260902173023 | 69 | 329 | 4.0 | 9.0 | 0.00 | 0.00 | 0.00 | 83 | 1017.8 |
| 20260902172513 | 68 | 327 | 3.0 | 9.0 | 0.00 | 0.00 | 0.00 | 83 | 1017.8 |
| 20260902172012 | 68 | 304 | 2.0 | 8.0 | 0.00 | 0.00 | 0.00 | 83 | 1017.8 |
| 20260902171511 | 68 | 285 | 2.0 | 8.0 | 0.00 | 0.00 | 0.00 | 82 | 1017.8 |
| 20260902171009 | 68 | 299 | 2.0 | 7.0 | 0.00 | 0.00 | 0.00 | 82 | 1017.8 |
| 20260902170507 | 68 | 280 | 2.0 | 4.0 | 0.00 | 0.00 | 0.00 | 82 | 1017.8 |
| 20260902170007 | 68 | 342 | 1.0 | 5.0 | 0.00 | 0.00 | 0.00 | 82 | 1017.8 |
| 20260902165505 | 68 | 345 | 1.0 | 5.0 | 0.00 | 0.00 | 0.00 | 82 | 1017.6 |
| 20260902165004 | 67 | 75 | 0.0 | 4.0 | 0.00 | 0.00 | 0.00 | 81 | 1017.5 |
| 20260902164501 | 67 | 321 | 1.0 | 4.0 | 0.00 | 0.00 | 0.00 | 81 | 1017.6 |
| 20260902164100 | 66 | 44 | 0.0 | 5.0 | 0.00 | 0.00 | 0.00 | 81 | 1017.6 |
| 20260902163559 | 66 | 345 | 0.0 | 5.0 | 0.00 | 0.00 | 0.00 | 81 | 1017.6 |
| 20260902163103 | 65 | 337 | 1.0 | 5.0 | 0.00 | 0.00 | 0.00 | 81 | 1017.5 |
| 20260902162556 | 66 | 337 | 2.0 | 5.0 | 0.00 | 0.00 | 0.00 | 80 | 1017.5 |
| 20260902162156 | 66 | 56 | 0.0 | 3.0 | 0.00 | 0.00 | 0.00 | 80 | 1017.5 |
| 20260902161554 | 65 | 54 | 0.0 | 3.0 | 0.00 | 0.00 | 0.00 | 80 | 1017.4 |
| 20260902161053 | 64 | 129 | 0.0 | 1.0 | 0.00 | 0.00 | 0.00 | 80 | 1017.5 |
| 20260902160551 | 64 | 129 | 0.0 | 1.0 | 0.00 | 0.00 | 0.00 | 79 | 1017.5 |
| 20260902160049 | 63 | 129 | 0.0 | 0.0 | 0.00 | 0.00 | 0.00 | 79 | 1017.5 |
| 20260902155548 | 62 | 129 | 0.0 | 0.0 | 0.00 | 0.00 | 0.00 | 79 | 1017.6 |
| 20260902155047 | 62 | 129 | 0.0 | 0.0 | 0.00 | 0.00 | 0.00 | 80 | 1017.6 |
| 20260902154545 | 61 | 129 | 0.0 | 0.0 | 0.00 | 0.00 | 0.00 | 79 | 1017.6 |
| 20260902154043 | 60 | 129 | 0.0 | 0.0 | 0.00 | 0.00 | 0.00 | 80 | 1017.5 |
| 20260902153542 | 60 | 129 | 0.0 | 1.0 | 0.00 | 0.00 | 0.00 | 80 | 1017.5 |
| 20260902153052 | 59 | 129 | 0.0 | 1.0 | 0.00 | 0.00 | 0.00 | 80 | 1017.5 |
| 20260902152543 | 59 | 129 | 0.0 | 2.0 | 0.00 | 0.00 | 0.00 | 79 | 1017.5 |
| 20260902152039 | 58 | 77 | 0.0 | 2.0 | 0.00 | 0.00 | 0.00 | 79 | 1017.4 |
| 20260902151537 | 58 | 76 | 0.0 | 1.0 | 0.00 | 0.00 | 0.00 | 79 | 1017.6 |
| 20260902151036 | 57 | 76 | 0.0 | 1.0 | 0.00 | 0.00 | 0.00 | 79 | 1017.6 |
| 20260902150533 | 57 | 76 | 0.0 | 1.0 | 0.00 | 0.00 | 0.00 | 79 | 1017.6 |
| 20260902150032 | 56 | 76 | 0.0 | 1.0 | 0.00 | 0.00 | 0.00 | 79 | 1017.6 |
| 20260902145531 | 55 | 76 | 0.0 | 1.0 | 0.00 | 0.00 | 0.00 | 80 | 1017.6 |
| 20260902145029 | 55 | 76 | 0.0 | 0.0 | 0.00 | 0.00 | 0.00 | 80 | 1017.5 |
| 20260902144527 | 54 | 76 | 0.0 | 0.0 | 0.00 | 0.00 | 0.00 | 80 | 1017.4 |
| 20260902144026 | 54 | 76 | 0.0 | 1.0 | 0.00 | 0.00 | 0.00 | 80 | 1017.3 |
| 20260902143528 | 53 | 76 | 0.0 | 2.0 | 0.00 | 0.00 | 0.00 | 81 | 1017.2 |
| 20260902143023 | 53 | 76 | 0.0 | 2.0 | 0.00 | 0.00 | 0.00 | 81 | 1017.2 |
| 20260902142522 | 52 | 76 | 0.0 | 3.0 | 0.00 | 0.00 | 0.00 | 81 | 1017.1 |
| 20260902142021 | 52 | 76 | 0.0 | 3.0 | 0.00 | 0.00 | 0.00 | 81 | 1017.2 |
| 20260902141518 | 52 | 75 | 0.0 | 3.0 | 0.00 | 0.00 | 0.00 | 81 | 1017.0 |
| 20260902141017 | 52 | 75 | 0.0 | 0.0 | 0.00 | 0.00 | 0.00 | 81 | 1017.1 |
| 20260902140516 | 52 | 75 | 0.0 | 0.0 | 0.00 | 0.00 | 0.00 | 81 | 1017.0 |
| 20260902140155 | 51 | 75 | 0.0 | 0.0 | 0.00 | 0.00 | 0.00 | 82 | 1017.0 |
| 20260902135553 | 51 | 75 | 0.0 | 0.0 | 0.00 | 0.00 | 0.00 | 82 | 1017.1 |
| 20260902135053 | 51 | 75 | 0.0 | 0.0 | 0.00 | 0.00 | 0.00 | 81 | 1017.1 |
| 20260902134553 | 51 | 75 | 0.0 | 3.0 | 0.00 | 0.00 | 0.00 | 81 | 1017.1 |
| 20260902134051 | 51 | 75 | 0.0 | 3.0 | 0.00 | 0.00 | 0.00 | 81 | 1017.0 |
| 20260902133551 | 51 | 75 | 0.0 | 3.0 | 0.00 | 0.00 | 0.00 | 81 | 1017.1 |
| 20260902133057 | 51 | 75 | 0.0 | 1.0 | 0.00 | 0.00 | 0.00 | 81 | 1017.0 |
| 20260902132552 | 51 | 75 | 0.0 | 0.0 | 0.00 | 0.00 | 0.00 | 81 | 1017.1 |
| 20260902132051 | 51 | 75 | 0.0 | 2.0 | 0.00 | 0.00 | 0.00 | 81 | 1017.0 |
| 20260902131551 | 51 | 75 | 0.0 | 2.0 | 0.00 | 0.00 | 0.00 | 81 | 1017.0 |
| 20260902131051 | 51 | 75 | 0.0 | 1.0 | 0.00 | 0.00 | 0.00 | 81 | 1016.9 |
| 20260902130552 | 51 | 75 | 0.0 | 3.0 | 0.00 | 0.00 | 0.00 | 82 | 1017.0 |
| 20260902130050 | 50 | 75 | 1.0 | 3.0 | 0.00 | 0.00 | 0.00 | 82 | 1017.0 |
| 20260902125550 | 50 | 75 | 0.0 | 2.0 | 0.00 | 0.00 | 0.00 | 82 | 1017.0 |
| 20260902125053 | 50 | 75 | 0.0 | 1.0 | 0.00 | 0.00 | 0.00 | 82 | 1017.0 |
| 20260902124551 | 50 | 75 | 0.0 | 1.0 | 0.00 | 0.00 | 0.00 | 82 | 1017.0 |
| 20260902124048 | 50 | 75 | 0.0 | 0.0 | 0.00 | 0.00 | 0.00 | 82 | 1017.0 |
| 20260902123551 | 50 | 75 | 0.0 | 0.0 | 0.00 | 0.00 | 0.00 | 82 | 1017.0 |
| 20260902123054 | 50 | 75 | 0.0 | 2.0 | 0.00 | 0.00 | 0.00 | 82 | 1017.0 |
| 20260902122549 | 50 | 75 | 0.0 | 3.0 | 0.00 | 0.00 | 0.00 | 82 | 1017.0 |
| 20260902122048 | 50 | 75 | 1.0 | 3.0 | 0.00 | 0.00 | 0.00 | 81 | 1017.0 |
| 20260902121548 | 50 | 72 | 0.0 | 0.0 | 0.00 | 0.00 | 0.00 | 81 | 1016.9 |
| 20260902121148 | 51 | 72 | 0.0 | 0.0 | 0.00 | 0.00 | 0.00 | 81 | 1017.0 |
| 20260902120550 | 51 | 72 | 0.0 | 2.0 | 0.00 | 0.00 | 0.00 | 81 | 1016.9 |
| 20260902120049 | 51 | 72 | 0.0 | 5.0 | 0.00 | 0.00 | 0.00 | 81 | 1017.0 |
| 20260902115545 | 51 | 45 | 0.0 | 6.0 | 0.00 | 0.00 | 0.00 | 81 | 1017.0 |
| 20260902115045 | 51 | 37 | 2.0 | 6.0 | 0.00 | 0.00 | 0.00 | 81 | 1016.9 |
| 20260902114545 | 51 | 94 | 0.0 | 0.0 | 0.00 | 0.00 | 0.00 | 81 | 1016.9 |
| 20260902114044 | 51 | 94 | 0.0 | 0.0 | 0.00 | 0.00 | 0.00 | 81 | 1016.9 |
| 20260902113543 | 51 | 94 | 0.0 | 1.0 | 0.00 | 0.00 | 0.00 | 81 | 1017.0 |
| 20260902113047 | 51 | 94 | 0.0 | 1.0 | 0.00 | 0.00 | 0.00 | 81 | 1016.9 |
| 20260902112543 | 52 | 94 | 0.0 | 1.0 | 0.00 | 0.00 | 0.00 | 81 | 1017.0 |
| 20260902112046 | 52 | 94 | 0.0 | 1.0 | 0.00 | 0.00 | 0.00 | 81 | 1017.0 |
| 20260902111543 | 52 | 94 | 0.0 | 2.0 | 0.00 | 0.00 | 0.00 | 81 | 1016.9 |
| 20260902111042 | 52 | 94 | 0.0 | 2.0 | 0.00 | 0.00 | 0.00 | 82 | 1016.8 |
| 20260902110541 | 52 | 94 | 0.0 | 2.0 | 0.00 | 0.00 | 0.00 | 82 | 1016.8 |
| 20260902110050 | 52 | 94 | 0.0 | 0.0 | 0.00 | 0.00 | 0.00 | 82 | 1016.9 |
| 20260902105541 | 52 | 94 | 0.0 | 0.0 | 0.00 | 0.00 | 0.00 | 82 | 1016.8 |
| 20260902105041 | 51 | 94 | 0.0 | 2.0 | 0.00 | 0.00 | 0.00 | 82 | 1016.8 |
| 20260902104555 | 51 | 94 | 0.0 | 2.0 | 0.00 | 0.00 | 0.00 | 82 | 1016.8 |
| 20260902104040 | 51 | 94 | 0.0 | 2.0 | 0.00 | 0.00 | 0.00 | 82 | 1016.7 |
| 20260902103540 | 51 | 94 | 0.0 | 3.0 | 0.00 | 0.00 | 0.00 | 82 | 1016.8 |
| 20260902103058 | 51 | 94 | 1.0 | 3.0 | 0.00 | 0.00 | 0.00 | 82 | 1016.8 |
| 20260902102539 | 51 | 92 | 0.0 | 2.0 | 0.00 | 0.00 | 0.00 | 82 | 1016.7 |
| 20260902102040 | 52 | 92 | 0.0 | 3.0 | 0.00 | 0.00 | 0.00 | 82 | 1016.7 |
| 20260902101538 | 52 | 92 | 0.0 | 2.0 | 0.00 | 0.00 | 0.00 | 82 | 1016.8 |
| 20260902101037 | 52 | 92 | 0.0 | 3.0 | 0.00 | 0.00 | 0.00 | 82 | 1016.8 |
| 20260902100537 | 52 | 92 | 0.0 | 3.0 | 0.00 | 0.00 | 0.00 | 82 | 1016.8 |
| 20260902100037 | 52 | 92 | 0.0 | 0.0 | 0.00 | 0.00 | 0.00 | 82 | 1016.9 |
| 20260902095536 | 52 | 92 | 0.0 | 0.0 | 0.00 | 0.00 | 0.00 | 82 | 1016.9 |
| 20260902095037 | 52 | 92 | 0.0 | 3.0 | 0.00 | 0.00 | 0.00 | 83 | 1017.0 |
| 20260902094536 | 52 | 92 | 1.0 | 3.0 | 0.00 | 0.00 | 0.00 | 83 | 1017.0 |
| 20260902094033 | 52 | 92 | 0.0 | 0.0 | 0.00 | 0.00 | 0.00 | 83 | 1017.1 |
| 20260902093534 | 52 | 92 | 0.0 | 0.0 | 0.00 | 0.00 | 0.00 | 82 | 1017.1 |
| 20260902093032 | 52 | 92 | 0.0 | 0.0 | 0.00 | 0.00 | 0.00 | 82 | 1017.2 |
| 20260902092532 | 53 | 92 | 0.0 | 1.0 | 0.00 | 0.00 | 0.00 | 82 | 1017.2 |
| 20260902092032 | 53 | 92 | 0.0 | 1.0 | 0.00 | 0.00 | 0.00 | 82 | 1017.1 |
| 20260902091530 | 53 | 92 | 0.0 | 1.0 | 0.00 | 0.00 | 0.00 | 82 | 1017.2 |
| 20260902091031 | 53 | 92 | 0.0 | 1.0 | 0.00 | 0.00 | 0.00 | 82 | 1017.1 |
| 20260902090530 | 53 | 92 | 0.0 | 0.0 | 0.00 | 0.00 | 0.00 | 82 | 1017.2 |
| 20260902090036 | 53 | 92 | 0.0 | 1.0 | 0.00 | 0.00 | 0.00 | 82 | 1017.2 |
| 20260902085528 | 53 | 92 | 0.0 | 1.0 | 0.00 | 0.00 | 0.00 | 82 | 1017.1 |
| 20260902085027 | 54 | 92 | 0.0 | 0.0 | 0.00 | 0.00 | 0.00 | 82 | 1017.2 |
| 20260902084535 | 54 | 92 | 0.0 | 1.0 | 0.00 | 0.00 | 0.00 | 82 | 1017.1 |
| 20260902084029 | 54 | 92 | 0.0 | 1.0 | 0.00 | 0.00 | 0.00 | 82 | 1017.3 |
| 20260902083531 | 54 | 92 | 0.0 | 1.0 | 0.00 | 0.00 | 0.00 | 82 | 1017.3 |
| 20260902083025 | 54 | 92 | 0.0 | 2.0 | 0.00 | 0.00 | 0.00 | 82 | 1017.2 |
| 20260902082525 | 54 | 92 | 0.0 | 2.0 | 0.00 | 0.00 | 0.00 | 82 | 1017.2 |
| 20260902082025 | 54 | 92 | 0.0 | 2.0 | 0.00 | 0.00 | 0.00 | 83 | 1017.3 |
| 20260902081525 | 54 | 92 | 0.0 | 2.0 | 0.00 | 0.00 | 0.00 | 83 | 1017.3 |
| 20260902081024 | 54 | 92 | 0.0 | 0.0 | 0.00 | 0.00 | 0.00 | 82 | 1017.2 |
| 20260902080523 | 54 | 92 | 0.0 | 1.0 | 0.00 | 0.00 | 0.00 | 83 | 1017.1 |
| 20260902080023 | 55 | 92 | 0.0 | 1.0 | 0.00 | 0.00 | 0.00 | 83 | 1017.2 |
| 20260902075521 | 55 | 92 | 0.0 | 1.0 | 0.00 | 0.00 | 0.00 | 83 | 1017.2 |
| 20260902075020 | 55 | 92 | 0.0 | 0.0 | 0.00 | 0.00 | 0.00 | 83 | 1017.1 |
| 20260902074520 | 55 | 92 | 0.0 | 0.0 | 0.00 | 0.00 | 0.00 | 83 | 1017.0 |
| 20260902074020 | 55 | 92 | 0.0 | 2.0 | 0.00 | 0.00 | 0.00 | 83 | 1017.0 |
| 20260902073520 | 55 | 92 | 0.0 | 4.0 | 0.00 | 0.00 | 0.00 | 83 | 1017.1 |
| 20260902073019 | 55 | 92 | 1.0 | 4.0 | 0.00 | 0.00 | 0.00 | 83 | 1017.0 |
| 20260902072518 | 55 | 92 | 0.0 | 3.0 | 0.00 | 0.00 | 0.00 | 84 | 1017.0 |